Content
SEND FEEDBACK

Daily
Averages
Monthly
Summary
Canada

QUEBEC CITY, QUEBEC


Home > North America > Canada > Quebec
Elevation: 239 feet     Latitude: 46 48N     Longitude: 071 23W

WEATHER
 
SELECT A DAY
Number of Records: 191,996;   Date Range: 6/30/96 - 7/23/14
 
SHARE

PRINT THIS DATA

[ ← Previous Day ]
WEATHER ALMANAC - FEBRUARY 3, 2014
[ Next Day → ]
[ °C ]   °F
Weather ElementAverageHighLow
Temperature9.5 °F20 °F (1:00 pm)-8 °F (10:00 pm)
Dewpoint0.9 °F6 °F (1:00 am)-12 °F (10:00 pm)
Humidity66 %85 % (10:00 pm)40 % (1:00 pm)
Barometer30.27 in30.34 in (11:00 pm)30.16 in (1:00 am)
Wind Speed4.8 mph10.4 mph (1:00 am)
Weather ElementAverage
Visibility21.7 mi
Wind DirectionSSE (169 °)

Weather ElementTotal
Precipitation---
Heating Degree Days59 (Base 65)
Averaged from 31 records on February 3, 2014
WEATHER CONDITIONS BREAKOUT
WIND DIRECTION BREAKOUT
WEATHER BY HOUR - FEBRUARY 3, 2014
[ °C ]   °F
Local TimeTemperatureDewpointHumidityBarometerVisibilityWind DirectionWind SpeedGust SpeedPrecipitationEventsConditions
1:00 AM17.0 °F6.0 °F49 %30.16 inNW (310°)10.4 mph
1:00 AM15.8 °F5.0 °F62 %30.17 in15.0 miWest (280°)8.1 mphClear
2:00 AM14.0 °F3.2 °F62 %30.18 in15.0 miNW (310°)4.6 mphClear
3:00 AM10.4 °F1.4 °F67 %30.21 in15.0 miNW (310°)6.9 mphClear
4:00 AM2.0 °F-2.0 °F77 %30.23 inWNW (290°)6.9 mph
4:00 AM8.6 °F-0.4 °F67 %30.24 in15.0 miWNW (290°)9.2 mphClear
5:00 AM8.6 °F-0.4 °F67 %30.25 in15.0 miNW (320°)6.9 mphPartly Cloudy
6:00 AM6.8 °F-2.2 °F67 %30.25 in15.0 miNorth (350°)8.1 mphPartly Cloudy
7:00 AM7.0 °F-1.0 °F58 %30.26 inNorth5.8 mph
7:00 AM5.0 °F-4.0 °F66 %30.26 in30.0 miNorth (10°)6.9 mphScattered Clouds
8:00 AM5.0 °F-2.2 °F72 %30.30 in30.0 miNNE (20°)6.9 mphMostly Cloudy
9:00 AM8.6 °F-0.4 °F67 %30.30 in30.0 miNNE (30°)5.8 mphMostly Cloudy
10:00 AM12.0 °F5.0 °F61 %30.31 inNE (50°)3.5 mph
10:00 AM10.4 °F3.2 °F73 %30.31 in30.0 miNNE (20°)5.8 mphMostly Cloudy
11:00 AM12.2 °F3.2 °F67 %30.33 in30.0 miCalmScattered Clouds
12:00 PM15.8 °F3.2 °F58 %30.31 in30.0 miVariable2.3 mphPartly Cloudy
1:00 PM20.0 °F6.0 °F40 %30.25 inNNE (20°)1.2 mph
1:00 PM15.8 °F5.0 °F62 %30.27 in30.0 miNNE (20°)4.6 mphPartly Cloudy
2:00 PM17.6 °F3.2 °F53 %30.26 in30.0 miCalmPartly Cloudy
3:00 PM17.6 °F3.2 °F53 %30.27 in30.0 miSSW (200°)6.9 mphPartly Cloudy
4:00 PM15.0 °F4.0 °F49 %30.27 inWest (260°)5.8 mph
4:00 PM14.0 °F3.2 °F62 %30.28 in30.0 miWest (260°)8.1 mphPartly Cloudy
5:00 PM12.2 °F3.2 °F67 %30.28 in20.0 miWSW (240°)6.9 mphPartly Cloudy
6:00 PM10.4 °F3.2 °F73 %30.29 in15.0 miWSW (240°)4.6 mphClear
7:00 PM0.0 °F-3.0 °F78 %30.30 inWNW (290°)2.3 mph
7:00 PM6.8 °F-0.4 °F72 %30.30 in15.0 miNW (310°)2.3 mphClear
8:00 PM5.0 °F-0.4 °F78 %30.32 in15.0 miWNW (300°)2.3 mphClear
9:00 PM3.2 °F-2.2 °F78 %30.32 in15.0 miCalmClear
10:00 PM-8.0 °F-12.0 °F71 %30.32 inWest (270°)2.3 mph
10:00 PM3.2 °F-0.4 °F85 %30.33 in15.0 miCalmClear
11:00 PM1.4 °F-2.2 °F85 %30.34 in15.0 miWSW (240°)4.6 mphClear
Hourly data recorded from CYQB, located miles away from Quebec City, Quebec







STORIES FROM OUR PARTNERS